Weather Roundup
Issued by NWS

Home | Current Version | Previous Version | Graphics & Text | Print | Product List | Glossary Off
Versions: 1 2 3 4 5 6 7 8 9 10 11 12 13 14 15 16 17 18 19 20 21 22 23 24 25 26 27 28 29 30 31 32 33 34 35 36 37 38 39 40 41 42 43 44 45 46 47 48 49 50

000
NZUS93 KARX 271410
HRRWXR

CURRENT HOURLY OBSERVATIONS ACROSS
MUCH OF THE UPPER MISSISSIPPI VALLEY
NATIONAL WEATHER SERVICE LA CROSSE WI
900 AM CDT THU AUG 27 2015


...SOUTHEAST MINNESOTA...


CITY           SKY/WX    TMP DP  RH WIND       PRES   REMARKS
ROCHESTER      MOSUNNY   60  56  86 S6        30.15F
ROCHESTER/MAYO CLOUDY    60  54  79 SE5       30.15S
WINONA         MOSUNNY   55  55 100 SE5       30.14F
AUSTIN         PTSUNNY   61  55  82 CALM      30.13F
ALBERT LEA     PTSUNNY   61  55  82 S6        30.13S
DODGE CENTER   PTSUNNY   59  55  88 S6        30.13F
PRESTON        PTSUNNY   58  54  86 CALM      30.16F
OWATONNA       PTSUNNY   63  54  72 SE10      30.11F
FARIBAULT      PTSUNNY   63  55  77 SE5       30.11F
$$

...ELSEWHERE IN MINNESOTA...


CITY           SKY/WX    TMP DP  RH WIND       PRES   REMARKS
MINNEAPOLIS    CLOUDY    65  54  67 SE6       30.10F
INTNL FALLS    SUNNY     56  52  86 CALM      30.06F
DULUTH         SUNNY     58  52  80 S5        30.12S
RED WING       PTSUNNY   63  57  82 SE5       30.12R
REDWOOD FALLS  PTSUNNY   61  56  83 SE8       30.05F
MANKATO        CLOUDY    63  54  72 S8        30.11R
WORTHINGTON    CLOUDY    61  54  77 S7        30.08F
FAIRMONT       CLOUDY    61  52  72 S6        30.11R
$$

...SOUTHWEST WISCONSIN...


CITY           SKY/WX    TMP DP  RH WIND       PRES   REMARKS
LA CROSSE      CLOUDY    57  55  93 E3        30.16S FOG
PRAIRIE DU CHI PTSUNNY   59  56  88 E3        30.17S
BOSCOBEL       CLOUDY    57  55  93 CALM      30.18F
LONE ROCK      SUNNY     60  55  83 CALM      30.19S
PLATTEVILLE    SUNNY     61  58  90 S8        30.18F
FORT MC COY    MOSUNNY   56  53  88 CALM      30.17F
CAMP DOUGLAS   SUNNY     59  59 100 SW3       30.16F
VIROQUA        FAIR      60  59  96 CALM      30.18S
WIS DELLS      SUNNY     61  55  80 SW8       30.17F
$$

...ELSEWHERE IN WISCONSIN...


CITY           SKY/WX    TMP DP  RH WIND       PRES   REMARKS
MILWAUKEE      SUNNY     64  54  69 CALM      30.19F
MADISON        MOSUNNY   62  54  74 SW3       30.19R
GREEN BAY      FOG       55  54  96 CALM      30.17F VSB 1/4
EAU CLAIRE     SUNNY     60  55  83 CALM      30.14F
BLACK RVR FLS  FAIR      55  55 100 CALM      30.16F
MEDFORD        SUNNY     57  54  88 S3        30.17S
WAUSAU         SUNNY     56  52  86 CALM      30.16S
WIS RAPIDS     SUNNY     60  55  83 SW3       30.19R
MARSHFIELD     SUNNY     61  54  77 CALM      30.17R
RICE LAKE      SUNNY     56  55  96 E5        30.15F
$$

...NORTHEAST IOWA...


CITY           SKY/WX    TMP DP  RH WIND       PRES   REMARKS
DECORAH        MOSUNNY   59  55  88 VRB6      30.16S
MASON CITY     CLOUDY    59  56  89 SE6       30.13F
CHARLES CITY   PTSUNNY   59  57  94 SE6       30.15F
OELWEIN        MOSUNNY   61  57  88 VRB6G12   30.17S
$$

...ELSEWHERE IN IOWA...


CITY           SKY/WX    TMP DP  RH WIND       PRES   REMARKS
DES MOINES     CLOUDY    64  55  72 S9        30.09F
IOWA CITY      MOSUNNY   61  57  87 SE8       30.18S
FORT DODGE     CLOUDY    61  54  77 E8        30.10F
$$

...NORTHERN ILLINOIS...


CITY           SKY/WX    TMP DP  RH WIND       PRES   REMARKS
CHICAGO-OHARE  MOSUNNY   63  53  70 CALM      30.21F
CHICAGO-MIDWAY PTSUNNY   64  53  67 NW5       30.21F
MOLINE         SUNNY     62  55  77 SE5       30.18S
ROCKFORD       MOSUNNY   61  55  81 S6        30.20F
PEORIA         SUNNY     64  54  69 SE6       30.19S
$$

NOTE: "FAIR" INDICATES FEW OR NO CLOUDS BELOW 12,000 FEET WITH NO
SIGNIFICANT WEATHER AND/OR OBSTRUCTIONS TO VISIBILITY. WIND
SPEEDS ARE IN MILES-PER-HOUR.



USA.gov is the U.S. government's official web portal to all federal, state and local government web resources and services.